Content
SEND FEEDBACK

Daily
Averages
Monthly
Summary
Philippines

BOOT, PHILIPPINES


Home > Asia > Philippines
Elevation: 36 feet     Latitude: 14 04N     Longitude: 121 03E

WEATHER
 
SELECT A DAY
Number of Records: 178,821;   Date Range: 7/1/96 - 12/16/14
 
SHARE

PRINT THIS DATA

[ ← Previous Day ]
WEATHER ALMANAC - JANUARY 16, 2013
[ Next Day → ]
[ °C ]   °F
Weather ElementAverageHighLow
Temperature78.2 °F83 °F (2:00 pm)75.2 °F (2:00 am)
Dewpoint67 °F68 °F (6:00 am)66 °F (11:00 am)
Humidity66.7 %78 % (6:00 am)51 % (2:00 pm)
Barometer29.96 in30.01 in (8:00 am)29.89 in (2:00 pm)
Wind Speed5.3 mph10.4 mph (4:00 pm)
Weather ElementAverage
Visibility6.2 mi
Wind DirectionESE (111 °)

Weather ElementTotal
Precipitation---
Cooling Degree Days14.1 (Base 65)
Growing Degree Days29.1 (Base 50)
Averaged from 30 records on January 16, 2013
WEATHER CONDITIONS BREAKOUT
WIND DIRECTION BREAKOUT
WEATHER BY HOUR - JANUARY 16, 2013
[ °C ]   °F
Local TimeTemperatureDewpointHumidityBarometerVisibilityWind DirectionWind SpeedGust SpeedPrecipitationEventsConditions
1:00 AM77.0 °F66.2 °F69 %29.95 in6.2 miSE (130°)3.5 mphMostly Cloudy
2:00 AM75.2 °F66.2 °F73 %29.95 in6.2 miESE (110°)3.5 mphMostly Cloudy
3:00 AM75.2 °F66.2 °F73 %29.95 in6.2 miSE (130°)5.8 mphMostly Cloudy
4:00 AM75.2 °F66.2 °F73 %29.95 in6.2 miCalmMostly Cloudy
5:00 AM76.0 °F67.0 °F65 %29.97 in6.0 miENE (60°)2.2 mphHaze
5:00 AM75.2 °F66.2 °F73 %29.95 in6.2 miVariable2.3 mphMostly Cloudy
6:00 AM75.2 °F68.0 °F78 %29.98 in6.2 miWNW (290°)3.5 mphMostly Cloudy
7:00 AM75.2 °F66.2 °F73 %29.98 in6.2 miNW (310°)4.6 mphMostly Cloudy
8:00 AM76.0 °F67.0 °F66 %30.01 in6.0 miWNW (300°)4.5 mphHaze
8:00 AM77.0 °F66.2 °F69 %30.01 in6.2 miWNW (300°)3.5 mphMostly Cloudy
9:00 AM78.8 °F68.0 °F69 %30.01 in6.2 miVariable2.3 mphMostly Cloudy
10:00 AM80.6 °F66.2 °F61 %30.01 in6.2 miVariable3.5 mphOvercast
11:00 AM81.0 °F66.0 °F52 %29.96 in6.0 miSSE (150°)2.2 mphHaze
11:00 AM82.4 °F68.0 °F62 %29.98 in6.2 miVariable3.5 mphOvercast
12:00 PM80.6 °F66.2 °F61 %29.95 in6.2 miVariable4.6 mphScattered Clouds
1:00 PM80.6 °F68.0 °F65 %29.92 in6.2 miVariable5.8 mphMostly Cloudy
2:00 PM83.0 °F68.0 °F51 %29.91 in6.0 miESE (110°)6.7 mphHaze
2:00 PM82.4 °F68.0 °F62 %29.89 in6.2 miESE (110°)6.9 mphMostly Cloudy
3:00 PM82.4 °F68.0 °F62 %29.89 in6.2 miESE (110°)9.2 mphRainRain
4:00 PM82.4 °F66.2 °F58 %29.89 in6.2 miEast (80°)10.4 mphOvercast
5:00 PM81.0 °F66.0 °F51 %29.94 in6.0 miEast (90°)8.9 mphHaze
5:00 PM80.6 °F66.2 °F61 %29.92 in6.2 miEast (90°)9.2 mphOvercast
6:00 PM78.8 °F68.0 °F69 %29.95 in6.2 miESE (110°)6.9 mphScattered Clouds
7:00 PM77.0 °F68.0 °F74 %29.95 in6.2 miESE (120°)6.9 mphScattered Clouds
8:00 PM77.0 °F67.0 °F64 %29.98 in6.0 miESE (120°)6.7 mphHaze
8:00 PM77.0 °F66.2 °F69 %29.98 in6.2 miESE (120°)6.9 mphScattered Clouds
9:00 PM77.0 °F68.0 °F74 %29.98 in6.2 miESE (120°)6.9 mphPartly Cloudy
10:00 PM75.2 °F68.0 °F78 %29.98 in6.2 miSE (130°)6.9 mphPartly Cloudy
11:00 PM76.0 °F68.0 °F69 %29.99 in6.0 miESE (120°)6.7 mphHaze
11:00 PM75.2 °F68.0 °F78 %29.98 in6.2 miESE (120°)5.8 mphPartly Cloudy
Hourly data recorded from RPLL, located miles away from Boot, Philippines







STORIES FROM OUR PARTNERS